Terminal Aerodrome Forecast
Issued by NWS Pittsburgh, PA

Current Version | Previous Version | Graphics & Text | Print | Product List | Glossary On
Versions: 1 2 3 4 5 6 7 8 9 10 11 12 13 14 15 16 17 18 19 20 21 22 23 24 25 26 27 28 29 30 31
000
FTUS41 KPBZ 232339
TAFPIT
TAF
KPIT 232339Z 2400/2506 31014KT P6SM BKN050
     FM240100 30008KT P6SM BKN040
     FM241400 30011G20KT P6SM FEW050=

USA.gov is the U.S. government's official web portal to all federal, state and local government web resources and services.